Weerstation Grootegast  Weerstation Grootegast


15 daagse weersverwachting Ballina (IE)

  • Overzicht
  • Per uur
  • 15 dagen
  • Extra
  • Vergelijk
  • Kaarten
  • Dagkaart
  • Meer »
  • Info
  • Statistieken
  • Directe link
    Temp 6h Neerslag Wind  
 07:40     18:01    Daglengte: 10:21 Vandaag
12:00
 
7
18:00
 
1
 07:38     18:03    Daglengte: 10:25 Morgen
00:00
7.6 mm
5
06:00
30.4 mm
8
12:00
 
10
18:00
 
6
 07:35     18:05    Daglengte: 10:30 Dinsdag 25 Feb
00:00
11.0 mm
6
06:00
 
6
12:00
11.7 mm
8
18:00
36.4 mm
8
 07:33     18:07    Daglengte: 10:34 Woensdag 26 Feb
00:00
15.7 mm
8
06:00
27.2 mm
9
Locatie info
Region: Connaught
Latitude: 54.1167°N
Longitude: -9.1667°E
32 masl
Temp/Neerslag /Baro Onweer/DauwpuntSneeuw
    Temp Baro 1h Neerslag Dauwpunt Wind UV BewolkingSneeuw  
 07:40     18:01    Daglengte: 10:21 Vandaag
12:00
Voelt als: 2.6°
1018.2 hPa
48%
-0.6°
7
Windvlaag: 0.3 m/s
18%
13:00
Voelt als: 3.2°
1019.1 hPa
17%
-0.9°
6
Windvlaag: -0.3 m/s
64%
14:00
Voelt als: 3.6°
1019.5 hPa
18%
-1.2°
5
Windvlaag: -0.7 m/s
77%
15:00
Voelt als: 4.1°
1020.1 hPa
14%
-1.3°
4
Windvlaag: -0.6 m/s
70%
16:00
Voelt als: 4.3°
1020.2 hPa
14%
-1.3°
3
Windvlaag: -0.5 m/s
82%
17:00
Voelt als: 4.7°
1020.4 hPa
14%
-0.9°
2
Windvlaag: -0.5 m/s
88%
18:00
Voelt als: 4.4°
1020.5 hPa
14%
-0.0°
1
Windvlaag: -0 m/s
89%
19:00
Voelt als: 3.5°
1020.0 hPa
14%
-0.0°
2
Windvlaag: 0.8 m/s
90%
20:00
Voelt als: 2.5°
1019.2 hPa
15%
0.1°
2
Windvlaag: 1.9 m/s
91%
21:00
Voelt als: 1.6°
1018.2 hPa
31%
0.2°
4
Windvlaag: 2.5 m/s
91%
22:00
Voelt als: 0.1°
1017.2 hPa 1.3 mm
82%
1.6°
5
Windvlaag: 4 m/s
91%
23:00
Voelt als: -1.9°
1015.6 hPa 2.5 mm
82%
2.1°
6
Windvlaag: 4.3 m/s
91%1 cm
 07:38     18:03    Daglengte: 10:25 Morgen
00:00
Voelt als: -3.0°
1012.6 hPa 3.7 mm
82%
1.4°
5
Windvlaag: 3 m/s
91%2 cm
01:00
Voelt als: -3.7°
1009.1 hPa 4.8 mm
82%
1.3°
6
Windvlaag: 2.8 m/s
91%5 cm
02:00
Voelt als: -4.2°
1005.9 hPa 5.4 mm
82%
0.8°
8
Windvlaag: 3.5 m/s
91%7 cm
03:00
Voelt als: -3.6°
1002.3 hPa 5.6 mm
82%
1.2°
9
Windvlaag: 5.8 m/s
91%8 cm
04:00
Voelt als: -2.8°
999.0 hPa 5.9 mm
82%
2.4°
10
Windvlaag: 7.4 m/s
91%8 cm
05:00
Voelt als: -0.0°
997.1 hPa 5.3 mm
82%
4.3°
8
Windvlaag: 7 m/s
89%7 cm
06:00
Voelt als: 4.2°
995.6 hPa 3.4 mm
82%
7.4°
8
Windvlaag: 6.5 m/s
90%7 cm
07:00
Voelt als: 4.8°
994.6 hPa
82%
7.6°
8
Windvlaag: 5.9 m/s
89%6 cm
08:00
Voelt als: 5.5°
994.0 hPa
82%
7.9°
8
Windvlaag: 5.6 m/s
83%6 cm
09:00
Voelt als: 4.6°
995.2 hPa
27%
7.3°
9
Windvlaag: 5.9 m/s
67%5 cm
10:00
Voelt als: 1.7°
997.7 hPa
23%
4.3°
10
Windvlaag: 0.3 m/s
64%5 cm
11:00
Voelt als: 1.4°
999.8 hPa
55%
3.2°
10
Windvlaag: -0.4 m/s
62%5 cm
12:00
Voelt als: 2.0°
1001.2 hPa
20%
2.5°
10
Windvlaag: -1.4 m/s
51%4 cm
13:00
Voelt als: 2.2°
1002.2 hPa
22%
2.6°
10
Windvlaag: -0.5 m/s
24%4 cm
14:00
Voelt als: 2.1°
1002.8 hPa
23%
2.7°
10
Windvlaag: -0.6 m/s
30%3 cm
15:00
Voelt als: 1.7°
1003.5 hPa
22%
2.1°
9
Windvlaag: -0.5 m/s
20%3 cm
16:00
Voelt als: 1.4°
1004.1 hPa
68%
1.0°
9
Windvlaag: -0.7 m/s
16%3 cm
17:00
Voelt als: 1.2°
1004.6 hPa
30%
-0.1°
7
Windvlaag: -0.2 m/s
19%3 cm
18:00
Voelt als: 0.6°
1004.9 hPa
22%
0.2°
6
Windvlaag: -0.4 m/s
8%3 cm
19:00
Voelt als: -0.1°
1005.0 hPa
21%
1.7°
6
Windvlaag: 0.1 m/s
53%4 cm
20:00
Voelt als: 0.1°
1004.7 hPa 5.4 mm
20%
0.8°
6
Windvlaag: 1.9 m/s
45%4 cm
21:00
Voelt als: 0.3°
1004.4 hPa
20%
0.4°
6
Windvlaag: 1.5 m/s
43%4 cm
22:00
Voelt als: -0.3°
1004.3 hPa 5.5 mm
20%
0.7°
6
Windvlaag: 1 m/s
65%4 cm
23:00
Voelt als: -0.4°
1003.8 hPa
18%
1.7°
6
Windvlaag: 1.1 m/s
76%4 cm
 07:35     18:05    Daglengte: 10:30 Dinsdag 25 Feb
00:00
Voelt als: -0.5°
1003.2 hPa
66%
1.6°
6
Windvlaag: 3.1 m/s
78%4 cm
01:00
Voelt als: -0.1°
1002.6 hPa
25%
0.8°
6
Windvlaag: 2.9 m/s
37%4 cm
02:00
Voelt als: -0.6°
1002.2 hPa
17%
1.2°
6
Windvlaag: 1.6 m/s
24%4 cm
03:00
Voelt als: -0.7°
1001.6 hPa
17%
1.2°
6
Windvlaag: 2.3 m/s
39%4 cm
04:00
Voelt als: -1.0°
1000.9 hPa
23%
1.9°
7
Windvlaag: 3.1 m/s
65%4 cm
05:00
Voelt als: -0.7°
1000.4 hPa
35%
1.3°
6
Windvlaag: 2.7 m/s
54%4 cm
06:00
Voelt als: -0.9°
1000.0 hPa
68%
1.1°
6
Windvlaag: 1.8 m/s
59%4 cm
07:00
Voelt als: -0.7°
999.4 hPa
24%
0.8°
5
Windvlaag: 1.9 m/s
43%4 cm
08:00
Voelt als: -0.6°
998.7 hPa
40%
1.6°
6
Windvlaag: 2.7 m/s
77%5 cm
09:00
Voelt als: -0.6°
998.2 hPa 4.5 mm
100%
1.4°
6
Windvlaag: 2.4 m/s
92%4 cm
10:00
Voelt als: -1.1°
997.4 hPa
97%
1.8°
6
Windvlaag: 1.2 m/s
83%5 cm
11:00
Voelt als: -0.8°
997.1 hPa
97%
1.7°
6
Windvlaag: 1.1 m/s
50%6 cm
12:00
Voelt als: -1.1°
997.1 hPa 7.3 mm
52%
0.7°
8
Windvlaag: 0.2 m/s
85%6 cm
13:00
Voelt als: -0.7°
996.7 hPa 7.0 mm
99%
-0.8°
10
Windvlaag: 1 m/s
60%6 cm
14:00
Voelt als: -1.1°
996.4 hPa 7.0 mm
100%
-0.8°
10
Windvlaag: 0.4 m/s
70%6 cm
15:00
Voelt als: -1.0°
995.9 hPa 7.4 mm
100%
-1.6°
9
Windvlaag: -0.3 m/s
81%7 cm
16:00
Voelt als: -1.9°
995.6 hPa
100%
-0.8°
10
Windvlaag: -0.6 m/s
78%7 cm
17:00
Voelt als: -2.6°
995.4 hPa 7.4 mm
95%
-0.9°
9
Windvlaag: 0.5 m/s
78%7 cm
18:00
Voelt als: -3.5°
995.5 hPa 7.6 mm
49%
-1.1°
8
Windvlaag: 0.9 m/s
73%7 cm
19:00
Voelt als: -3.4°
995.9 hPa 7.6 mm
47%
-0.4°
8
Windvlaag: 1 m/s
87%7 cm
20:00
Voelt als: -3.6°
996.3 hPa
44%
-0.4°
8
Windvlaag: 1.2 m/s
77%7 cm
21:00
Voelt als: -3.4°
996.6 hPa
39%
-1.0°
8
Windvlaag: 2 m/s
76%7 cm
22:00
Voelt als: -2.0°
997.2 hPa
26%
-1.6°
7
Windvlaag: 2.8 m/s
60%7 cm
23:00
Voelt als: -2.0°
997.5 hPa
35%
-0.9°
7
Windvlaag: 3.2 m/s
95%8 cm
 07:33     18:07    Daglengte: 10:34 Woensdag 26 Feb
00:00
Voelt als: -2.2°
998.2 hPa 8.2 mm
30%
-0.4°
8
Windvlaag: 0.5 m/s
60%7 cm
01:00
Voelt als: -2.1°
999.1 hPa 13.4 mm
30%
-0.5°
7
Windvlaag: -1.3 m/s
57%7 cm
02:00
Voelt als: -2.0°
999.9 hPa
30%
-0.9°
8
Windvlaag: -2.6 m/s
74%7 cm
03:00
Voelt als: -2.1°
1000.7 hPa
89%
-1.0°
9
Windvlaag: -2.9 m/s
37%7 cm
04:00
Voelt als: -2.3°
1001.5 hPa
45%
-1.0°
9
Windvlaag: -2.6 m/s
65%7 cm
05:00
Voelt als: -1.9°
1002.3 hPa
33%
-1.3°
8
Windvlaag: -2.5 m/s
62%7 cm
06:00
Voelt als: -1.8°
1003.2 hPa 13.8 mm
35%
-1.5°
9
Windvlaag: -1.5 m/s
53%7 cm
07:00
Voelt als: -1.6°
1003.9 hPa
40%
-2.1°
8
Windvlaag: 13.5 m/s
36%7 cm
08:00
Voelt als: -1.1°
1004.3 hPa
85%
-2.1°
7
Windvlaag: 11.2 m/s
32%7 cm
09:00
Voelt als: -0.5°
1004.8 hPa
34%
-1.7°
7
Windvlaag: 10 m/s
41%7 cm
10:00
Voelt als: -0.2°
1005.3 hPa
33%
-1.2°
8
Windvlaag: 8.9 m/s
49%7 cm
11:00
Voelt als: 0.2°
1005.7 hPa
40%
-1.1°
8
Windvlaag: 8.8 m/s
44%7 cm
Temp/Neerslag /Baro Onweer/DauwpuntSneeuw
    Temp Baro Neerslag Dauwpunt Wind BewolkingSneeuw  
 07:40     18:01    Daglengte: 10:21 Vandaag
12:00
Voelt als: 2.6°
1018.2 hPa   -0.6°
7
18%
15:00
Voelt als: 4.1°
1020.1 hPa   -1.3°
4
70%
18:00
Voelt als: 4.4°
1020.5 hPa   -0.0°
1
89%
21:00
Voelt als: 1.6°
1018.2 hPa   0.2°
4
91%
 07:38     18:03    Daglengte: 10:25 Morgen
00:00
Voelt als: -3.0°
1012.6 hPa 7.6 mm 1.4°
5
91%2 cm
03:00
Voelt als: -3.6°
1002.3 hPa 15.8 mm 1.2°
9
91%8 cm
06:00
Voelt als: 4.2°
995.6 hPa 14.6 mm 7.4°
8
90%7 cm
09:00
Voelt als: 4.6°
995.2 hPa   7.3°
9
67%5 cm
12:00
Voelt als: 2.0°
1001.2 hPa   2.5°
10
51%4 cm
15:00
Voelt als: 1.7°
1003.5 hPa   2.1°
9
20%3 cm
18:00
Voelt als: 0.6°
1004.9 hPa   0.2°
6
8%3 cm
21:00
Voelt als: 0.3°
1004.4 hPa 5.4 mm 0.4°
6
43%4 cm
 07:35     18:05    Daglengte: 10:30 Dinsdag 25 Feb
00:00
Voelt als: -0.5°
1003.2 hPa 5.5 mm 1.6°
6
78%4 cm
03:00
Voelt als: -0.7°
1001.6 hPa   1.2°
6
39%4 cm
06:00
Voelt als: -0.9°
1000.0 hPa   1.1°
6
59%4 cm
09:00
Voelt als: -0.6°
998.2 hPa 4.5 mm 1.4°
6
92%4 cm
12:00
Voelt als: -1.1°
997.1 hPa 7.3 mm 0.7°
8
85%6 cm
15:00
Voelt als: -1.0°
995.9 hPa 21.4 mm -1.6°
9
81%7 cm
18:00
Voelt als: -3.5°
995.5 hPa 15.0 mm -1.1°
8
73%7 cm
21:00
Voelt als: -3.4°
996.6 hPa 7.6 mm -1.0°
8
76%7 cm
 07:33     18:07    Daglengte: 10:34 Woensdag 26 Feb
00:00
Voelt als: -2.2°
998.2 hPa 8.2 mm -0.4°
8
60%7 cm
03:00
Voelt als: -2.1°
1000.7 hPa 13.4 mm -1.0°
9
37%7 cm
06:00
Voelt als: -1.8°
1003.2 hPa 13.8 mm -1.5°
9
53%7 cm
09:00
Voelt als: -0.5°
1004.8 hPa   -1.7°
7
41%7 cm
12:00
Voelt als: 0.7°
1006.0 hPa   -1.5°
8
41%6 cm
15:00
Voelt als: -0.1°
1007.0 hPa 39.2 mm -1.1°
6
72%
18:00
Voelt als: -0.6°
1007.4 hPa 39.4 mm -1.0°
5
87%
21:00
Voelt als: -1.0°
1007.4 hPa 39.5 mm -1.0°
4
50%
 07:31     18:09    Daglengte: 10:38 Donderdag 27 Feb
00:00
Voelt als: -1.4°
1007.2 hPa 40.8 mm -1.1°
3
12%
03:00
Voelt als: -2.0°
1004.9 hPa 43.0 mm -1.0°
3
51% warningclass
06:00
Voelt als: -2.6°
1003.0 hPa 43.8 mm -0.9°
3
90% warningclass
09:00
Voelt als: -1.2°
1001.5 hPa 44.0 mm -0.2°
4
90%
12:00
Voelt als: 0.4°
999.8 hPa 44.8 mm 0.4°
5
90%
15:00
Voelt als: 0.7°
997.2 hPa 45.5 mm 1.9°
5
91%
18:00
Voelt als: 1.0°
994.5 hPa 45.9 mm 3.2°
5
92%
21:00
Voelt als: 1.1°
994.7 hPa 45.9 mm 2.9°
5
62%
 07:28     18:11    Daglengte: 10:43 Vrijdag 28 Feb
00:00
Voelt als: 1.4°
994.7 hPa 47.9 mm 2.9°
5
32%
03:00
Voelt als: 0.9°
993.9 hPa 48.3 mm 2.1°
4
61%
06:00
Voelt als: 0.5°
993.2 hPa 48.3 mm 1.5°
4
91%
09:00
Voelt als: 1.4°
991.5 hPa 48.4 mm 1.5°
4
69%
12:00
Voelt als: 2.5°
989.9 hPa 49.0 mm 1.3°
5
48%
15:00
Voelt als: 1.9°
987.2 hPa 49.4 mm 1.0°
4
70%
18:00
Voelt als: 1.4°
984.4 hPa 49.4 mm 0.6°
3
92%
21:00
Voelt als: -0.6°
984.0 hPa 49.4 mm 0.0°
4
68%
 07:26     18:13    Daglengte: 10:47 Zaterdag 29 Feb
00:00
Voelt als: -2.3°
983.6 hPa 49.4 mm -0.7°
6
45%
03:00
Voelt als: -2.3°
984.6 hPa 49.4 mm -0.5°
6
68%
06:00
Voelt als: -2.3°
985.6 hPa 49.4 mm -0.3°
6
90%
09:00
Voelt als: -0.3°
989.6 hPa 49.4 mm -1.1°
6
84%
12:00
Voelt als: 1.9°
993.6 hPa 49.8 mm -2.6°
6
77%
15:00
Voelt als: 1.3°
997.3 hPa 50.8 mm -1.9°
4
39%
18:00
Voelt als: 1.3°
1001.0 hPa 51.3 mm -1.6°
2
0%
21:00
Voelt als: -0.8°
1002.7 hPa 51.4 mm -1.6°
3
28%
 07:24     18:15    Daglengte: 10:51 Zondag 01 Maa
00:00
Voelt als: -2.6°
1004.4 hPa 51.4 mm -1.6°
3
56% warningclass
03:00
Voelt als: -1.7°
1004.0 hPa 51.4 mm -1.0°
4
57%
06:00
Voelt als: -0.8°
1003.6 hPa 51.4 mm -0.3°
5
59%
09:00
Voelt als: 1.3°
1004.7 hPa   -0.5°
5
47%
12:00
Voelt als: 3.4°
1005.7 hPa 102.7 mm -1.1°
5
35%
18:00
Voelt als: 2.2°
1005.2 hPa 102.7 mm -0.5°
2
27%
 07:21     18:17    Daglengte: 10:56 Maandag 02 Maa
00:00
Voelt als: -2.5°
1003.2 hPa 102.7 mm -0.6°
3
90% warningclass
06:00
Voelt als: -2.8°
999.7 hPa 102.7 mm -0.2°
4
92%
12:00
Voelt als: 0.4°
995.7 hPa 104.1 mm 2.7°
8
77%
18:00
Voelt als: 1.4°
987.3 hPa 111.7 mm 2.1°
8
92%
 07:19     18:18    Daglengte: 10:59 Dinsdag 03 Maa
00:00
Voelt als: 0.6°
982.3 hPa 112.5 mm 2.0°
5
53%
06:00
Voelt als: -1.3°
986.4 hPa 112.5 mm -1.5°
6
52%
12:00
Voelt als: 0.9°
990.0 hPa 113.7 mm -0.3°
5
67%
18:00
Voelt als: -0.4°
991.5 hPa 122.2 mm 0.0°
4
62%
 07:17     18:20    Daglengte: 11:03 Woensdag 04 Maa
00:00
Voelt als: -1.0°
995.4 hPa 133.4 mm 3.2°
6
1%
06:00
Voelt als: 0.5°
995.7 hPa 1.2 mm 0.1°
2
71%
12:00
Voelt als: 2.6°
997.7 hPa 1.6 mm 1.3°
3
75%
18:00
Voelt als: 1.1°
998.0 hPa 1.8 mm 1.4°
4
78%
 07:14     18:22    Daglengte: 11:08 Donderdag 05 Maa
00:00
Voelt als: 0.6°
998.5 hPa 1.4 mm 1.6°
4
69%
06:00
Voelt als: 0.4°
998.4 hPa 1.4 mm 2.3°
6
67%
12:00
Voelt als: 3.3°
999.7 hPa 1.5 mm 3.4°
7
65%
18:00
Voelt als: 1.5°
1000.9 hPa 1.9 mm 2.1°
6
71%
 07:12     18:24    Daglengte: 11:12 Vrijdag 06 Maa
00:00
Voelt als: -0.2°
1003.1 hPa 0.7 mm 0.6°
5
54%
06:00
Voelt als: -0.0°
1001.9 hPa 0.8 mm 0.4°
4
60%
12:00
Voelt als: 2.8°
1002.1 hPa 1.9 mm 1.9°
5
68%
18:00
Voelt als: 1.6°
1003.4 hPa 1.9 mm 1.9°
6
71%
 07:09     18:26    Daglengte: 11:17 Zaterdag 07 Maa
00:00
Voelt als: 0.2°
1007.1 hPa 0.6 mm 1.4°
6
54%
06:00
Voelt als: 0.1°
1008.5 hPa 0.9 mm 1.9°
6
58%
12:00
Voelt als: 4.2°
1009.8 hPa 1.3 mm 3.7°
8
65%
18:00
Voelt als: 3.4°
1009.4 hPa 1.3 mm 4.0°
6
79%
 07:07     18:28    Daglengte: 11:21 Zondag 08 Maa
00:00
Voelt als: 2.6°
1009.2 hPa 1.4 mm 3.5°
4
73%
06:00
Voelt als: 1.6°
1007.7 hPa 1.7 mm 2.6°
5
70%
12:00
Voelt als: 4.3°
1008.9 hPa 0.9 mm 3.0°
6
58%
18:00
Voelt als: 3.7°
1010.0 hPa 0.8 mm 3.2°
5
69%
 07:04     18:30    Daglengte: 11:26 Maandag 09 Maa
00:00
Voelt als: 2.3°
1011.7 hPa 1.3 mm 2.8°
4
62%
06:00
Voelt als: 2.3°
1010.4 hPa 1.3 mm 3.1°
4
69%
  CAPE Lifted Index Hail Supercell Tornado SRH 3km CL BTM PRES CL TOP PRES Swiss DWD icon SMHI TS
 07:40     18:01    Daglengte: 10:21 Vandaag
12:00 19 J/kg 18.2 K 0 % 0 % 0 % 0 m²/s² 0 0 26.66 3
13:00 7 J/kg 18.1 K 0 % 0 % 0 % 0 m²/s² 0 0 27.46 3
14:00 2 J/kg 18.3 K 0 % 0 % 0 % 0 m²/s² 0 0 27.72 3
15:00 1 J/kg 18.5 K 0 % 0 % 0 % 0 m²/s² 0 0 27.11 3
16:00 0 J/kg 18.4 K 0 % 0 % 0 % 0 m²/s² 0 0 24.97 3
17:00 0 J/kg 18.8 K 0 % 0 % 0 % 0 m²/s² 0 0 21.68 3
18:00 0 J/kg 18.9 K 0 % 0 % 0 % 0 m²/s² 0 0 21 3
19:00 0 J/kg 19.5 K 0 % 0 % 0 % 0 m²/s² 0 0 20.07 3
20:00 0 J/kg 19.2 K 0 % 0 % 0 % 0 m²/s² 0 0 19.56 3
21:00 0 J/kg 19.3 K 0 % 0 % 0 % 0 m²/s² 0 0 19.63 3
22:00 1 J/kg 18.2 K 0 % 0 % 0 % 0 m²/s² 0 0 18.47 61
23:00 0 J/kg 17.0 K 0 % 0 % 0 % 0 m²/s² 0 0 17.24 61
 07:38     18:03    Daglengte: 10:25 Morgen
00:00 0 J/kg 15.2 K 0 % 0 % 0 % 0 m²/s² 0 0 15.41 73
01:00 0 J/kg 11.4 K 0 % 0 % 0 % 0 m²/s² 0 0 11.55 73
02:00 0 J/kg 8.4 K 0 % 0 % 0 % 0 m²/s² 0 0 8.61 73
03:00 0 J/kg 4.5 K 0 % 0 % 0 % 0 m²/s² 0 0 4.83 61
04:00 0 J/kg 3.8 K 0 % 0 % 0 % 0 m²/s² 0 0 9.32 61
05:00 1 J/kg 3.2 K 0 % 0 % 0 % 0 m²/s² 0 0 11.57 61
06:00 0 J/kg 2.5 K 0 % 0 % 0 % 0 m²/s² 0 0 11.56 53
07:00 0 J/kg 3.0 K 0 % 0 % 0 % 0 m²/s² 0 0 11.25 61
08:00 8 J/kg 4.6 K 0 % 0 % 0 % 0 m²/s² 0 0 13.15 51
09:00 11 J/kg 6.3 K 0 % 0 % 0 % 0 m²/s² 0 0 14.46 3
10:00 13 J/kg 7.8 K 0 % 0 % 0 % 0 m²/s² 0 0 14.52 3
11:00 27 J/kg 8.8 K 0 % 0 % 0 % 0 m²/s² 0 0 13.75 2
12:00 39 J/kg 8.1 K 0 % 0 % 0 % 0 m²/s² 0 0 11.88 2
13:00 56 J/kg 7.2 K 0 % 0 % 0 % 0 m²/s² 0 0 10.74 2
14:00 106 J/kg 5.5 K 0 % 0 % 0 % 0 m²/s² 0 0 8.92 2
15:00 81 J/kg 5.2 K 0 % 0 % 0 % 0 m²/s² 0 0 8.59 2
16:00 70 J/kg 4.8 K 0 % 0 % 0 % 0 m²/s² 0 0 7.23 2
17:00 43 J/kg 4.6 K 0 % 0 % 0 % 0 m²/s² 0 0 6.13 2
18:00 8 J/kg 3.5 K 0 % 0 % 0 % 0 m²/s² 0 0 4.85 2
19:00 0 J/kg 2.0 K 0 % 0 % 0 % 0 m²/s² 0 0 2.45 3
20:00 67 J/kg 1.2 K 0 % 0 % 0 % 0 m²/s² 0 0 2.16 3
21:00 45 J/kg 2.4 K 0 % 0 % 0 % 0 m²/s² 0 0 3.12 3
22:00 170 J/kg 0.7 K 0 % 0 % 0 % 0 m²/s² 0 0 2.2 3
23:00 1 J/kg 0.7 K 0 % 0 % 0 % 0 m²/s² 0 0 3.22 3
 07:35     18:05    Daglengte: 10:30 Dinsdag 25 Feb
00:00 116 J/kg -0.2 K 0 % 0 % 0 % 0 m²/s² 0 0 1.96 3
01:00 0 J/kg 0.4 K 0 % 0 % 0 % 0 m²/s² 0 0 1.69 2
02:00 0 J/kg 0.4 K 0 % 0 % 0 % 0 m²/s² 0 0 1.78 2
03:00 0 J/kg 1.0 K 0 % 0 % 0 % 0 m²/s² 0 0 1.57 3
04:00 2 J/kg -0.6 K 0 % 0 % 0 % 0 m²/s² 0 0 1.71 3
05:00 181 J/kg -0.5 K 0 % 0 % 0 % 0 m²/s² 0 0 1.87 3
06:00 0 J/kg 1.1 K 0 % 0 % 0 % 0 m²/s² 0 0 2.03 3
07:00 0 J/kg -0.5 K 0 % 0 % 0 % 0 m²/s² 0 0 1.66 2
08:00 119 J/kg -0.8 K 0 % 0 % 0 % 0 m²/s² 0 0 2.08 3
09:00 189 J/kg -0.4 K 0 % 0 % 0 % 0 m²/s² 0 0 0.38 80
10:00 1 J/kg 1.2 K 0 % 0 % 0 % 0 m²/s² 0 0 1.8 2
11:00 0 J/kg 1.3 K 0 % 0 % 0 % 0 m²/s² 0 0 2.14 3
12:00 42 J/kg -0.7 K 0 % 0 % 0 % 0 m²/s² 0 0 0.02 3
13:00 257 J/kg 0.2 K 0 % 0 % 0 % 0 m²/s² 0 0 2.33 3
14:00 166 J/kg 0.1 K 0 % 0 % 0 % 0 m²/s² 0 0 1.36 3
15:00 0 J/kg 1.1 K 0 % 0 % 0 % 0 m²/s² 0 0 1.76 3
16:00 255 J/kg -0.2 K 0 % 0 % 0 % 0 m²/s² 0 0 2.17 3
17:00 0 J/kg 1.3 K 0 % 0 % 0 % 0 m²/s² 0 0 2.5 3
18:00 83 J/kg 0.1 K 0 % 0 % 0 % 0 m²/s² 0 0 2.68 3
19:00 285 J/kg -1.6 K 0 % 0 % 0 % 0 m²/s² 0 0 -0.28 3
20:00 146 J/kg -1.5 K 0 % 0 % 0 % 0 m²/s² 0 0 -0.84 3
21:00 34 J/kg 0.3 K 0 % 0 % 0 % 0 m²/s² 0 0 2.19 3
22:00 26 J/kg 0.0 K 0 % 0 % 0 % 0 m²/s² 0 0 0.63 2
23:00 273 J/kg -1.0 K 0 % 0 % 0 % 0 m²/s² 0 0 1.22 3
 07:33     18:07    Daglengte: 10:34 Woensdag 26 Feb
00:00 246 J/kg -0.9 K 0 % 0 % 0 % 0 m²/s² 0 0 1.2 2
01:00 345 J/kg -1.0 K 0 % 0 % 0 % 0 m²/s² 0 0 2.12 3
02:00 244 J/kg 1.6 K 0 % 0 % 0 % 0 m²/s² 0 0 5.32 3
03:00 124 J/kg 3.8 K 0 % 0 % 0 % 0 m²/s² 0 0 6.2 3
04:00 37 J/kg 5.8 K 0 % 0 % 0 % 0 m²/s² 0 0 7.93 3
05:00 106 J/kg 6.2 K 0 % 0 % 0 % 0 m²/s² 0 0 7.76 2
06:00 100 J/kg 6.7 K 0 % 0 % 0 % 0 m²/s² 0 0 9.7 2
07:00 11 J/kg 8.6 K 0 % 0 % 0 % 0 m²/s² 0 0 11.6 2
08:00 19 J/kg 8.7 K 0 % 0 % 0 % 0 m²/s² 0 0 11.07 2
09:00 11 J/kg 8.6 K 0 % 0 % 0 % 0 m²/s² 0 0 9.62 1
10:00 0 J/kg 8.5 K 0 % 0 % 0 % 0 m²/s² 0 0 9.46 1
11:00 34 J/kg 8.5 K 0 % 0 % 0 % 0 m²/s² 0 0 10.51 1
Temp Baro Wind Neerslag
  EWN Forecast EWN WRFDA DWD ICON FMI HIRLAM MET Norway GFS
 07:40     18:01    Daglengte: 10:21 Vandaag
12:00 6.5° 1018.2 hPa 6.6 m/s 0.0 mm 6.4° 1016.5 hPa 7.5 m/s 5.2 mm 7.2° 1017.7 hPa 7.4 m/s -1.1 mm 6.6° 1018.2 hPa 7.0 m/s 0.0 mm 6.3° 1018.7 hPa 5.7 m/s 6.0° 1018.4 hPa 6.6 m/s
15:00 6.9° 1020.1 hPa 4.3 m/s 0.0 mm 6.6° 1017.4 hPa 4.7 m/s 15.5 mm 7.2° 1019.2 hPa 5.5 m/s 0.0 mm 7.0° 1020.5 hPa 4.2 m/s 0.0 mm 6.7° 1020.6 hPa 3.8 m/s 6.3° 1019.2 hPa 4.3 m/s
18:00 5.2° 1020.5 hPa 1.3 m/s 0.0 mm 5.1° 1017.9 hPa 0.9 m/s 15.5 mm 6.1° 1019.6 hPa 1.7 m/s 0.0 mm 6.3° 1020.9 hPa 1.7 m/s 0.0 mm 4.9° 1021.0 hPa 1.3 m/s 4.5° 1019.8 hPa 1.5 m/s
21:00 4.6° 1018.2 hPa 3.6 m/s 0.0 mm 4.8° 1015.0 hPa 4.7 m/s 15.5 mm 5.1° 1017.2 hPa 2.7 m/s 0.0 mm 5.6° 1018.7 hPa 4.9 m/s 0.0 mm 4.3° 1018.5 hPa 3.2 m/s 3.5° 1016.6 hPa 4.4 m/s
 07:38     18:03    Daglengte: 10:25 Morgen
00:00 1.7° 1012.6 hPa 5.3 m/s 7.6 mm 0.9° 1009.5 hPa 5.9 m/s 24.4 mm 0.6° 1012.2 hPa 3.3 m/s 5.7 mm 2.0° 1013.3 hPa 5.6 m/s 0.0 mm 1.9° 1012.8 hPa 5.3 m/s 1.1° 1009.7 hPa 8.1 m/s
03:00 2.3° 1002.3 hPa 8.8 m/s 15.8 mm 2.9° 996.9 hPa 13.7 m/s 53.9 mm 1.8° 1002.7 hPa 8.8 m/s 8.5 mm 2.5° 1003.3 hPa 8.9 m/s 0.0 mm 2.7° 1001.7 hPa 8.4 m/s 3.5° 999.0 hPa 8.4 m/s
06:00 8.1° 995.6 hPa 8.0 m/s 14.6 mm 8.2° 992.2 hPa 8.3 m/s 64.6 mm 2.6° 995.6 hPa 6.9 m/s 0.5 mm 10.1° 997.1 hPa 10.8 m/s 0.0 mm 10.0° 995.1 hPa 7.5 m/s 8.9° 994.3 hPa 7.4 m/s
09:00 8.6° 995.2 hPa 8.9 m/s 0.0 mm 5.4° 994.3 hPa 10.2 m/s 65.4 mm 4.0° 996.1 hPa 7.3 m/s 0.2 mm 10.0° 995.5 hPa 10.0 m/s 0.0 mm 9.2° 995.1 hPa 7.8 m/s 6.4° 996.2 hPa 8.2 m/s
12:00 6.8° 1001.2 hPa 9.8 m/s 0.0 mm 5.8° 1000.0 hPa 10.5 m/s 65.6 mm 6.5° 1001.2 hPa 11.5 m/s 0.0 mm 7.6° 1001.2 hPa 9.9 m/s 0.0 mm 6.8° 1001.7 hPa 8.1 m/s 5.2° 1001.1 hPa 9.1 m/s
15:00 6.5° 1003.5 hPa 9.3 m/s 0.0 mm 5.2° 1001.7 hPa 9.1 m/s 66.3 mm 6.6° 1003.4 hPa 9.6 m/s 0.0 mm 6.7° 1003.8 hPa 9.3 m/s 0.0 mm 6.2° 1003.8 hPa 8.3 m/s 5.8° 1003.4 hPa 9.7 m/s
18:00 4.9° 1004.9 hPa 6.4 m/s 0.0 mm 2.1° 1001.9 hPa 3.5 m/s 67.2 mm 5.0° 1005.2 hPa 6.8 m/s 0.0 mm 6.1° 1004.5 hPa 6.1 m/s 0.0 mm 4.7° 1005.3 hPa 6.4 m/s 3.5° 1003.9 hPa 6.4 m/s
21:00 4.4° 1004.4 hPa 5.8 m/s 5.4 mm 2.9° 1001.7 hPa 8.1 m/s 78.3 mm 4.1° 1005.2 hPa 5.5 m/s 0.0 mm 5.2° 1003.8 hPa 5.1 m/s 0.0 mm 4.5° 1004.7 hPa 5.5 m/s 3.5° 1003.7 hPa 6.6 m/s
 07:35     18:05    Daglengte: 10:30 Dinsdag 25 Feb
00:00 4.0° 1003.2 hPa 6.4 m/s 5.5 mm 3.1° 1001.3 hPa 6.6 m/s 81.3 mm 4.1° 1004.6 hPa 6.4 m/s 0.0 mm 4.6° 1002.2 hPa 6.6 m/s 0.0 mm 3.8° 1003.3 hPa 5.5 m/s 3.4° 1003.1 hPa 6.7 m/s
03:00 3.7° 1001.6 hPa 5.8 m/s 0.0 mm 3.0° 1000.0 hPa 7.6 m/s 83.4 mm 3.8° 1003.3 hPa 6.1 m/s 0.0 mm 4.3° 1000.5 hPa 5.2 m/s 0.0 mm 3.0° 1001.6 hPa 5.7 m/s 3.0° 1001.9 hPa 6.2 m/s
06:00 3.7° 1000.0 hPa 6.3 m/s 0.0 mm 2.8° 998.3 hPa 6.7 m/s 86.4 mm 3.8° 1001.8 hPa 5.7 m/s 0.0 mm 4.4° 999.4 hPa 7.6 m/s 0.0 mm 2.9° 999.9 hPa 5.6 m/s 2.9° 1001.0 hPa 5.9 m/s
09:00 3.7° 998.2 hPa 5.6 m/s 4.5 mm 3.7° 996.4 hPa 5.2 m/s 87.7 mm 3.8° 998.5 hPa 7.9 m/s 0.6 mm 3.2° 998.2 hPa 4.9 m/s 3.2° 998.4 hPa 4.6 m/s
12:00 4.1° 997.1 hPa 8.4 m/s 7.3 mm 2.2° 995.2 hPa 4.1 m/s 97.3 mm 4.6° 997.9 hPa 11.8 m/s 0.1 mm 3.9° 996.8 hPa 8.2 m/s 3.9° 997.4 hPa 8.2 m/s
15:00 4.3° 995.9 hPa 8.7 m/s 21.4 mm 0.8° 994.8 hPa 5.3 m/s 105.1 mm 4.1° 996.6 hPa 11.2 m/s 0.2 mm 4.4° 995.2 hPa 8.3 m/s 3.3° 996.9 hPa 10.0 m/s
18:00 2.2° 995.5 hPa 8.1 m/s 15.0 mm 1.5° 994.5 hPa 10.5 m/s 110.3 mm 2.3° 996.1 hPa 10.0 m/s 0.1 mm 1.9° 994.7 hPa 6.2 m/s 1.3° 997.1 hPa 9.0 m/s
21:00 2.2° 996.6 hPa 7.9 m/s 7.6 mm 2.7° 996.0 hPa 13.1 m/s 113.8 mm 1.8° 997.3 hPa 8.0 m/s 0.0 mm 2.0° 995.6 hPa 5.5 m/s 2.9° 998.6 hPa 11.9 m/s
 07:33     18:07    Daglengte: 10:34 Woensdag 26 Feb
00:00 3.1° 998.2 hPa 7.6 m/s 8.2 mm 3.1° 999.9 hPa 11.9 m/s 118.0 mm 1.3° 997.6 hPa 5.7 m/s 0.0 mm 3.1° 998.2 hPa 6.5 m/s 3.1° 1002.4 hPa 10.5 m/s
03:00 3.4° 1000.7 hPa 8.7 m/s 13.4 mm 2.6° 1003.2 hPa 8.5 m/s 120.6 mm 3.6° 998.9 hPa 9.8 m/s 0.0 mm 3.2° 1000.8 hPa 6.7 m/s 2.3° 1005.6 hPa 8.7 m/s
06:00 3.6° 1003.2 hPa 8.6 m/s 13.8 mm 2.8° 1005.4 hPa 8.4 m/s 121.8 mm 3.6° 1001.9 hPa 10.1 m/s 0.0 mm 3.4° 1003.4 hPa 6.9 m/s 2.0° 1008.0 hPa 7.6 m/s
09:00 4.3° 1004.8 hPa 7.3 m/s 0.0 mm 2.7° 1007.2 hPa 5.6 m/s 122.2 mm 4.6° 1004.4 hPa 8.4 m/s 0.0 mm 4.5° 1004.5 hPa 7.3 m/s 2.5° 1009.3 hPa 5.1 m/s
12:00 5.4° 1006.0 hPa 8.0 m/s 0.0 mm 5.2° 1007.0 hPa 7.3 m/s 125.1 mm 5.4° 1006.1 hPa 9.8 m/s 0.0 mm 5.5° 1005.7 hPa 7.8 m/s 5.2° 1009.5 hPa 7.0 m/s
15:00 4.1° 1007.0 hPa 5.8 m/s 39.2 mm 4.0° 1007.0 hPa 5.8 m/s 5.2° 1007.3 hPa 5.9 m/s 39.2 mm
18:00 3.3° 1007.4 hPa 4.7 m/s 39.4 mm 3.3° 1007.6 hPa 4.8 m/s 3.2° 1005.2 hPa 3.6 m/s 39.4 mm
21:00 2.4° 1007.4 hPa 3.6 m/s 39.5 mm 2.4° 1007.9 hPa 3.6 m/s 2.4° 1002.3 hPa 2.6 m/s 39.5 mm
 07:31     18:09    Daglengte: 10:38 Donderdag 27 Feb
00:00 1.5° 1007.2 hPa 2.7 m/s 40.8 mm 1.5° 1008.2 hPa 2.5 m/s 1.9° 995.8 hPa 4.5 m/s 40.8 mm
03:00 1.1° 1004.9 hPa 2.8 m/s 43.0 mm 1.1° 1006.2 hPa 2.6 m/s 1.6° 991.2 hPa 4.9 m/s 43.0 mm
06:00 0.7° 1003.0 hPa 2.9 m/s 43.8 mm 0.6° 1004.1 hPa 2.8 m/s 1.9° 991.4 hPa 3.9 m/s 43.8 mm
09:00 2.5° 1001.5 hPa 3.9 m/s 44.0 mm 2.4° 1002.1 hPa 3.9 m/s 3.1° 994.6 hPa 3.5 m/s 44.0 mm
12:00 4.2° 999.8 hPa 4.9 m/s 44.8 mm 4.2° 1000.1 hPa 5.0 m/s 4.7° 996.8 hPa 3.7 m/s 44.8 mm
15:00 4.5° 997.2 hPa 5.0 m/s 45.5 mm 4.5° 997.2 hPa 5.0 m/s 4.9° 997.6 hPa 5.5 m/s 45.5 mm
18:00 4.6° 994.5 hPa 4.8 m/s 45.9 mm 4.8° 994.2 hPa 4.9 m/s 2.6° 998.3 hPa 3.8 m/s 45.9 mm
21:00 4.7° 994.7 hPa 4.7 m/s 45.9 mm 5.0° 994.4 hPa 4.8 m/s 1.1° 998.2 hPa 3.1 m/s 45.9 mm
 07:28     18:11    Daglengte: 10:43 Vrijdag 28 Feb
00:00 4.9° 994.7 hPa 4.7 m/s 47.9 mm 5.2° 994.5 hPa 4.8 m/s 1.8° 996.4 hPa 4.1 m/s 47.9 mm
03:00 4.4° 993.9 hPa 4.3 m/s 48.3 mm 4.6° 993.8 hPa 4.3 m/s 1.7° 994.9 hPa 3.8 m/s 48.3 mm
06:00 3.8° 993.2 hPa 3.8 m/s 48.3 mm 4.0° 993.1 hPa 3.8 m/s 1.4° 994.2 hPa 3.7 m/s 48.3 mm
09:00 4.8° 991.5 hPa 4.4 m/s 48.4 mm 5.0° 991.4 hPa 4.4 m/s 2.7° 993.7 hPa 3.9 m/s 48.4 mm
12:00 5.9° 989.9 hPa 5.1 m/s 49.0 mm 6.0° 989.6 hPa 5.0 m/s 5.3° 992.8 hPa 6.5 m/s 49.0 mm
15:00 5.2° 987.2 hPa 4.2 m/s 49.4 mm 5.2° 986.8 hPa 4.2 m/s 5.5° 991.1 hPa 4.7 m/s 49.4 mm
18:00 4.2° 984.4 hPa 3.2 m/s 49.4 mm 4.3° 984.0 hPa 3.4 m/s 2.6° 989.3 hPa 0.9 m/s 49.4 mm
21:00 3.3° 984.0 hPa 4.5 m/s 49.4 mm 3.3° 983.5 hPa 4.8 m/s 2.2° 988.8 hPa 1.7 m/s 49.4 mm
 07:26     18:13    Daglengte: 10:47 Zaterdag 29 Feb
00:00 2.4° 983.6 hPa 5.8 m/s 49.4 mm 2.4° 983.1 hPa 6.1 m/s 2.4° 989.4 hPa 2.1 m/s 49.4 mm
03:00 2.5° 984.6 hPa 6.0 m/s 49.4 mm 2.5° 984.0 hPa 6.4 m/s 2.3° 990.5 hPa 2.0 m/s 49.4 mm
06:00 2.6° 985.6 hPa 6.3 m/s 49.4 mm 2.6° 985.0 hPa 6.7 m/s 2.2° 992.4 hPa 2.0 m/s 49.4 mm
09:00 4.2° 989.6 hPa 6.4 m/s 49.4 mm 4.2° 989.1 hPa 6.8 m/s 3.4° 995.5 hPa 2.1 m/s 49.4 mm
12:00 5.9° 993.6 hPa 6.5 m/s 49.8 mm 5.9° 993.2 hPa 6.8 m/s 6.1° 998.5 hPa 3.0 m/s 49.8 mm
15:00 4.6° 997.3 hPa 4.2 m/s 50.8 mm 4.5° 996.9 hPa 4.2 m/s 6.0° 1001.3 hPa 4.0 m/s 50.8 mm
18:00 3.2° 1001.0 hPa 1.9 m/s 51.3 mm 3.1° 1000.6 hPa 1.7 m/s 3.8° 1005.0 hPa 4.6 m/s 51.3 mm
21:00 2.0° 1002.7 hPa 2.7 m/s 51.4 mm 2.0° 1002.2 hPa 2.5 m/s 1.6° 1009.0 hPa 5.5 m/s 51.4 mm
 07:24     18:15    Daglengte: 10:51 Zondag 01 Maa
00:00 0.9° 1004.4 hPa 3.3 m/s 51.4 mm 1.0° 1003.7 hPa 3.2 m/s 0.3° 1012.0 hPa 4.4 m/s 51.4 mm
03:00 2.0° 1004.0 hPa 3.9 m/s 51.4 mm 2.2° 1003.1 hPa 4.0 m/s -0.2° 1013.5 hPa 3.2 m/s 51.4 mm
06:00 3.2° 1003.6 hPa 4.6 m/s 51.4 mm 3.5° 1002.5 hPa 4.8 m/s -0.5° 1015.2 hPa 2.7 m/s 51.4 mm
09:00 4.8° 1004.7 hPa 4.5 m/s 51.4 mm 5.1° 1003.6 hPa 4.8 m/s 1.2° 1015.9 hPa 1.6 m/s 51.4 mm
12:00 6.5° 1005.7 hPa 4.6 m/s 51.4 mm 6.7° 1004.8 hPa 4.8 m/s 4.1° 1015.9 hPa 2.1 m/s 51.4 mm
18:00 3.8° 1005.2 hPa 1.9 m/s 51.4 mm 4.0° 1004.4 hPa 1.8 m/s 2.1° 1013.6 hPa 2.6 m/s 51.4 mm
 07:21     18:17    Daglengte: 10:56 Maandag 02 Maa
00:00 0.9° 1003.2 hPa 3.0 m/s 51.4 mm 1.0° 1002.6 hPa 2.8 m/s -0.7° 1010.1 hPa 5.5 m/s 51.4 mm
06:00 1.4° 999.7 hPa 4.5 m/s 51.4 mm 1.5° 999.1 hPa 4.2 m/s 0.7° 1006.2 hPa 7.6 m/s 51.4 mm
12:00 5.1° 995.7 hPa 7.7 m/s 52.7 mm 5.3° 995.3 hPa 7.2 m/s 2.7° 1000.4 hPa 13.4 m/s 52.7 mm
18:00 5.8° 987.3 hPa 7.7 m/s 56.2 mm 6.0° 986.1 hPa 7.9 m/s 3.9° 1000.2 hPa 4.9 m/s 56.2 mm
 07:19     18:18    Daglengte: 10:59 Dinsdag 03 Maa
00:00 4.3° 982.3 hPa 4.7 m/s 56.2 mm 4.6° 980.7 hPa 4.9 m/s 1.3° 999.5 hPa 2.8 m/s 56.2 mm
06:00 3.2° 986.4 hPa 5.9 m/s 56.2 mm 3.4° 985.9 hPa 6.0 m/s 1.5° 992.4 hPa 5.1 m/s 56.2 mm
12:00 4.7° 990.0 hPa 5.2 m/s 57.3 mm 4.9° 990.5 hPa 5.2 m/s 2.7° 984.7 hPa 5.0 m/s 57.3 mm
18:00 3.0° 991.5 hPa 3.6 m/s 62.4 mm 2.9° 991.8 hPa 3.8 m/s 3.8° 988.2 hPa 2.0 m/s 62.4 mm
 07:17     18:20    Daglengte: 11:03 Woensdag 04 Maa
00:00 3.7° 995.4 hPa 6.4 m/s 67.8 mm 3.7° 995.4 hPa 6.4 m/s 67.8 mm
06:00 2.9° 995.7 hPa 2.4 m/s 1.2 mm
12:00 5.3° 997.7 hPa 3.4 m/s 1.6 mm
18:00 4.5° 998.0 hPa 4.2 m/s 1.8 mm
 07:14     18:22    Daglengte: 11:08 Donderdag 05 Maa
00:00 4.1° 998.5 hPa 4.3 m/s 1.4 mm
06:00 4.6° 998.4 hPa 5.8 m/s 1.4 mm
12:00 7.1° 999.7 hPa 6.8 m/s 1.5 mm
18:00 5.6° 1000.9 hPa 6.4 m/s 1.9 mm
 07:12     18:24    Daglengte: 11:12 Vrijdag 06 Maa
00:00 3.8° 1003.1 hPa 5.1 m/s 0.7 mm
06:00 3.5° 1001.9 hPa 4.1 m/s 0.8 mm
12:00 6.3° 1002.1 hPa 5.4 m/s 1.9 mm
18:00 5.6° 1003.4 hPa 6.1 m/s 1.9 mm
 07:09     18:26    Daglengte: 11:17 Zaterdag 07 Maa
00:00 4.3° 1007.1 hPa 5.7 m/s 0.6 mm
06:00 4.5° 1008.5 hPa 6.5 m/s 0.9 mm
12:00 8.0° 1009.8 hPa 7.7 m/s 1.3 mm
18:00 6.9° 1009.4 hPa 5.7 m/s 1.3 mm
 07:07     18:28    Daglengte: 11:21 Zondag 08 Maa
00:00 5.7° 1009.2 hPa 4.1 m/s 1.4 mm
06:00 5.1° 1007.7 hPa 4.8 m/s 1.7 mm
12:00 7.7° 1008.9 hPa 6.1 m/s 0.9 mm
18:00 6.8° 1010.0 hPa 4.5 m/s 0.8 mm
 07:04     18:30    Daglengte: 11:26 Maandag 09 Maa
00:00 5.1° 1011.7 hPa 3.6 m/s 1.3 mm
06:00 5.3° 1010.4 hPa 3.7 m/s 1.3 mm
FMI Hirlam - 7.5 km EWN WRFDA - 12 km DWD ICON - 7 km GFS - 25 km Basiskaart






























































Updatetijd (Europe/Amsterdam) Resolutie Lengte Stap
FMI Hirlam 06:15, 12:15, 18:15, 00:15 7.5 km 49h 1h
EWN WRFDA 08:45, 14:45, 20:45, 02:45 12 km 73h 1h
DWD ICON 10:45, 16:45, 22:45, 04:45 7 km 75h 1h
GFS 07:00, 13:00, 19:00, 01:00 25 km 237h 3h
30+ mm
25-30 mm
20-25 mm
15-20 mm
10-15 mm
6-10 mm
4-6 mm
2-4 mm
1-2 mm
0.5-1 mm
0.2-0.5 mm
0.1-0.2 mm
30+ mm
25-30 mm
20-25 mm
15-20 mm
10-15 mm
6-10 mm
4-6 mm
2-4 mm
1-2 mm
0.5-1 mm
0.2-0.5 mm
0.1-0.2 mm
Sneeuwval
Natte sneeuw
Hagel
Vorst
30+ mm
25-30 mm
20-25 mm
15-20 mm
10-15 mm
6-10 mm
4-6 mm
2-4 mm
1-2 mm
0.5-1 mm
0.2-0.5 mm
0.1-0.2 mm
Sneeuwval
Natte sneeuw
Hagel
Vorst
Onweer
50 mm
40 mm
30 mm
26 mm
22 mm
18 mm
14 mm
10 mm
9 mm
8 mm
7 mm
6 mm
5 mm
4.5 mm
4 mm
3.5 mm
3 mm
2.5 mm
2 mm
1.5 mm
1 mm
0.8 mm
0.6 mm
0.4 mm
0.2 mm
0.05 mm
35°
30°
25°
20°
15°
10°
-5°
-10°
-15°
-20°
-25°
-30°
-35°
33> m/s
29 m/s
25 m/s
21 m/s
17 m/s
14 m/s
11 m/s
8 m/s
5 m/s
3 m/s
0 m/s
2600 J/kg
2400 J/kg
2200 J/kg
2000 J/kg
1800 J/kg
1600 J/kg
1400 J/kg
1200 J/kg
1000 J/kg
800 J/kg
600 J/kg
400 J/kg
200 J/kg
70 dBZ
65 dBZ
60 dBZ
55 dBZ
50 dBZ
45 dBZ
40 dBZ
35 dBZ
30 dBZ
25 dBZ
20 dBZ
15 dBZ
10 dBZ
5 dBZ
-1 K
-2 K
-3 K
-4 K
-5 K
-6 K
-7 K
-8 K
-9 K
950 m²/s²
900 m²/s²
850 m²/s²
800 m²/s²
750 m²/s²
700 m²/s²
650 m²/s²
600 m²/s²
550 m²/s²
500 m²/s²
450 m²/s²
400 m²/s²
350 m²/s²
300 m²/s²
250 m²/s²
200 m²/s²
150 m²/s²
100 m²/s²
46 m/s
44 m/s
42 m/s
40 m/s
38 m/s
36 m/s
34 m/s
32 m/s
30 m/s
28 m/s
26 m/s
24 m/s
22 m/s
20 m/s
16 m/s
12 m/s
8 m/s
4 m/s
30 m/s
28 m/s
26 m/s
24 m/s
22 m/s
20 m/s
18 m/s
16 m/s
14 m/s
12 m/s
10 m/s
8 m/s
6 m/s
4 m/s
2 m/s
3.0
2.8
2.6
2.4
2.2
2.0
1.8
1.6
1.4
1.2
1.0
0.8
0.6
0.4
0.2
15
14